User: anonymous   Login
Location: Aulagny
(45.1643°N, 4.3096°E)
Time: 12:47:18
(UTC+00:00)
Language:

Cosmos 1777 Rocket - Orbit

View from above orbital plane
View from above orbital plane
View from above satellite
View from above satellite

Ground track
Ground track

The orbit data is extracted from the following two-line orbital elements,

1 16953U 86070B   19341.91581654 +.00000000 +00000-0 +89664-5 0  9990
2 16953 074.0137 051.0617 0011266 051.8335 308.3831 14.37370174741688
Epoch (UTC): 07 December 2019 21:58:46
Eccentricity: 0.0011266
inclination: 74.0137°
perigee height: 759 km
apogee height: 775 km
right ascension of ascending node: 51.0617°
argument of perigee: 51.8335°
revolutions per day: 14.37370174
mean anomaly at epoch: 308.3831°
orbit number at epoch: 74168

The dashed part of the orbit path shows where the satellite is in the earth's shadow,  

DLR